Regional Weather Roundup
Issued by NWS

Home | Current Version | Previous Version | Graphics & Text | Print | Product List | Glossary On
Versions: 1 2 3 4 5 6 7 8 9 10 11 12 13 14 15 16 17 18 19 20 21 22 23 24 25 26 27 28 29 30 31 32 33 34 35 36 37 38 39 40 41 42 43 44 45 46 47 48 49 50
156
ASUS43 KMPX 091301
RWRMN
WEATHER ROUNDUP FOR MINNESOTA
NATIONAL WEATHER SERVICE TWIN CITIES/CHANHASSEN MN
700 AM CST FRI DEC 09 2016


NOTE: "FAIR" INDICATES FEW OR NO CLOUDS BELOW 12,000 FEET WITH NO
SIGNIFICANT WEATHER AND/OR OBSTRUCTIONS TO VISIBILITY. N/A MEANS
CURRENT SKY AND/OR WEATHER CONDITIONS ARE NOT AVAILABLE.

MNZ060>063-068>070-091400-
   Twin Cities Metro

CITY           SKY/WX    TMP DP  RH WIND       PRES   REMARKS
TWIN CITIES    CLOUDY    15   9  76 W8        30.54S WCI   4
ST PAUL        CLOUDY    16  11  80 W9        30.56R WCI   4
CRYSTAL        CLOUDY    15   8  73 W8        30.53S WCI   4
BLAINE         CLOUDY    16  12  86 W8        30.52S WCI   5
LAKEVILLE      CLEAR      5   3  92 W6        30.54R WCI  -6
EDEN PRAIRIE   CLOUDY    13   9  84 SW6       30.53S WCI   4
SOUTH ST PAUL  CLOUDY    16  11  80 W5        30.54R WCI   8
LAKE ELMO      CLOUDY    18  12  79 W7        30.54R WCI   8
$$
MNZ001>005-007-008-013>017-022>024-027-028-091400-
   Northwest Minnesota

CITY           SKY/WX    TMP DP  RH WIND       PRES   REMARKS
BEMIDJI        FLURRIES   4   0  83 W6        30.49S WCI  -7
HALLOCK        CLOUDY     5   0  78 N12       30.56S WCI -11
ROSEAU         CLOUDY     3  -2  78 W6        30.53R WCI  -8
WARROAD        CLOUDY     3  -2  78 NW10      30.51S WCI -12
THIEF RVR FALL FLURRIES   6   3  87 W7        30.53S WCI  -6
CROOKSTON      CLOUDY     7   1  78 NW10      30.56F WCI  -8
FOSSTON        LGT SNOW   3   0  85 CALM      30.51F
DETROIT LAKES  FLURRIES   7   5  92 W6        30.51S WCI  -3
MOORHEAD       MIX PCPN   7   1  78 W7        30.57S WCI  -5
PARK RAPIDS    CLOUDY     7   0  73 NW6       30.48S WCI  -3
$$
MNZ006-009>011-018-025>026-091400-
   North Central Minnesota

CITY           SKY/WX    TMP DP  RH WIND       PRES   REMARKS
BAUDETTE       CLOUDY     3  -5  69 W14G22    30.48S WCI -15
FLAG ISLAND    CLOUDY     1  -2  85 W10G17    30.49S WCI -14
INTL FALLS     LGT SNOW   6   1  80 W6        30.46R WCI  -4
WASKISH        CLOUDY     5   0  78 NW6       30.50S WCI  -6
BIG FORK       CLOUDY     5   0  78 CALM      30.47S
LONGVILLE      FLURRIES   9   3  78 W6        30.49R WCI  -1
GRAND RAPIDS   FLURRIES   6   2  83 NW8       30.49R WCI  -7
CRANE LAKE     LGT SNOW   9   5  85 CALM      30.46S
ORR            CLOUDY     7   0  72 W9        30.42R WCI  -7
COOK           CLOUDY     9   3  78 W9        30.44S WCI  -5
$$
MNZ012-019>021-037-091400-
   Northeast Minnesota

CITY           SKY/WX    TMP DP  RH WIND       PRES   REMARKS
DULUTH         MOCLDY    10   3  73 NW7       30.42S WCI  -1
ELY            LGT SNOW   9   5  85 W5        30.40S WCI   0
HIBBING        CLOUDY     5   1  83 NW7       30.45R FOG     WCI  -7
EVELETH        CLOUDY    10   3  75 NW8       30.44S WCI  -3
DULUTH HARBOR  FLURRIES  16   9  73 NW12      30.51S WCI   3
TWO HARBORS    MOCLDY    14   5  67 CALM      30.43S
SILVER BAY     CLOUDY    12   9  85 CALM      30.42S
GRAND MARAIS     N/A     15   9  76 NW3       30.44F
G MARAIS ARPRT LGT SNOW   7   1  78 NW3       30.33S
$$
MNZ029>031-032-039>041-046>048-054>057-064-091400-
   West Central Minnesota

CITY           SKY/WX    TMP DP  RH WIND       PRES   REMARKS
FERGUS FALLS   FLURRIES   3   0  85 W6        30.60S WCI  -8
WHEATON        CLOUDY     1  -4  78 W10       30.59F WCI -14
MORRIS         CLOUDY     3   0  85 NW8       30.55S WCI -10
ALEXANDRIA     CLOUDY     5   2  87 W7        30.52S WCI  -7
ELBOW LAKE     CLOUDY     2  -1  86 NW12      30.56R WCI -14
WADENA         CLOUDY     7   3  85 W3        30.50S
GLENWOOD       CLOUDY     3   1  92 W6        30.53S WCI  -8
APPLETON       CLOUDY     1  -4  78 W6        30.58S WCI -10
BENSON         FLURRIES   5   0  78 N6        30.56S WCI  -6
ORTONVILLE     CLEAR      0  -6  78 CALM      30.56F
MADISON        CLEAR      1  -2  85 NW6       30.58S WCI -10
WILLMAR        FLURRIES   3   1  92 W7        30.56S WCI  -9
$$
MNZ033>034-036-042>043-049>051-058-059-091400-
   Central Minnesota

CITY           SKY/WX    TMP DP  RH WIND       PRES   REMARKS
ST CLOUD       MOCLDY     6   3  87 W6        30.53S WCI  -4
PAYNESVILLE    CLEAR      0  -2  90 W7        30.55R WCI -13
AITKIN         MIX PCPN  12   7  79 CALM      30.48R
PINE RIVER     CLOUDY     9   5  85 W5        30.51S WCI   0
BRAINERD       CLOUDY    10   5  80 NW6       30.50R WCI   0
STAPLES        CLOUDY     7   3  85 NW7       30.50S WCI  -5
LONG PRAIRIE   CLOUDY     7   3  85 SW6       30.51S WCI  -3
LITTLE FALLS   FLURRIES   9   3  78 W6        30.53R WCI  -1
LITCHFIELD     CLEAR      5   1  85 W7        30.55R WCI  -7
BUFFALO        FLURRIES   9   6  84 W6        30.55S WCI   0
MAPLE LAKE     FLURRIES   8   5  89 W5        30.54S WCI   0
HUTCHINSON     CLEAR      5   2  87 W8        30.56R WCI  -8
$$
MNZ037-044-045-052-053-091400-
   East Central Minnesota

CITY           SKY/WX    TMP DP  RH WIND       PRES   REMARKS
PRINCETON      CLOUDY    12   9  85 W9        30.52R WCI   0
MORA           FLURRIES  14  10  85 NW7       30.52R WCI   4
CAMBRIDGE      FLURRIES  16   9  73 W5        30.50S WCI   9
RUSH CITY      CLOUDY    14  10  85 W7        30.52R WCI   4
MOOSE LAKE     CLOUDY    12   9  85 NW6       30.47S WCI   3
HINCKLEY       CLOUDY    14  10  85 W7        30.50R WCI   4
CLOQUET        FLURRIES   9   5  85 W6        30.44S WCI  -1
MCGREGOR       CLOUDY    12   9  85 NW7       30.48S WCI   2
$$
MNZ071>073-080-081-089-090-097-098-091400-
   Southwest Minnesota

CITY           SKY/WX    TMP DP  RH WIND       PRES   REMARKS
MONTEVIDEO     MOCLDY     0  -2  92 CALM      30.58F
GRANITE FALLS  PTCLDY     0  -4  85 W5        30.59F WCI -10
CANBY          CLOUDY     1  -4  81 CALM      30.58R
MARSHALL       CLOUDY    -1  -5  82 W7        30.56F WCI -14
REDWOOD FALLS  CLEAR      1  -4  79 NW7       30.57S WCI -12
OLIVIA         PTCLDY     1  -4  78 W5        30.57R WCI  -8
PIPESTONE      CLEAR      0  -4  85 NW3       30.50S
WINDOM         CLEAR      1  -2  85 CALM      30.53S
WORTHINGTON    CLEAR     -1  -4  87 W5        30.52F WCI -11
JACKSON        CLEAR      1  -2  85 NW6       30.53S WCI -10
TRACY          CLEAR      2  -2  84 CALM      30.54S
SLAYTON        CLEAR      0  -4  86 CALM      30.51F
$$
MNZ065>067-074>077-082>085-091>093-091400-
   South Central Minnesota

CITY           SKY/WX    TMP DP  RH WIND       PRES   REMARKS
MANKATO        CLEAR      5   1  83 W7        30.57R WCI  -7
NEW ULM          N/A      1  -2  85 W7        30.57R WCI -11
ST JAMES       CLEAR      3   0  85 W5        30.57F WCI  -6
FAIRMONT       CLEAR      5   1  83 NW7       30.56F WCI  -7
GLENCOE        CLEAR      7   5  91 W7        30.55S WCI  -4
FARIBAULT      LGT SNOW   7   3  85 W7        30.55S WCI  -5
OWATONNA       LGT SNOW   9   5  85 W8        30.54R WCI  -4
WASECA         FLURRIES  10   7  85 W9        30.56R WCI  -2
ALBERT LEA     CLOUDY    12  10  92 W6        30.53R WCI   3
$$
MNZ078>079-086>088-094>096-091400-
   Southeast Minnesota

CITY           SKY/WX    TMP DP  RH WIND       PRES   REMARKS
ROCHESTER      CLOUDY     9   6  88 W9        30.51R WCI  -4
RED WING       FLURRIES  12   9  85 W6        30.53R WCI   3
STANTON        CLOUDY     9   5  84 SW5       30.54R WCI   1
DODGE CENTER   LGT SNOW   9   7  92 NW7       30.51R WCI  -3
WINONA         CLOUDY    19  14  79 W7        30.54S WCI  10
AUSTIN         LGT SNOW  10   7  85 NW6       30.52S WCI   1
PRESTON        FLURRIES  10   7  88 NW7       30.51S WCI  -1
$$
ABBREVIATIONS USED IN REMARKS
   TC - TEMPERATURES IN CELSIUS
  WCI - WIND CHILL INDEX
   HX - HEAT INDEX
  VSB - VISIBILITY
$$




USA.gov is the U.S. government's official web portal to all federal, state and local government web resources and services.